DW8618 Nerja ES current weather conditions

sailwx.info

Wind from 286 at 0 knots gusting 3

Air temperature 21.7° C
Dewpoint 15.9° C

Last reported at 2017-Aug-23 06:01 UTC.
Time now 2017-Aug-23 06:18 UTC

Location: N 36°46' W 003°52'.
View on Google Maps.

See reports from other nearby stations

  
Tides and Currents Weather Stations Pressure Air Temp Water Temp Dewpoint Dewpoint Depression Visibility Wind Speed Wind Dir Waves Ship Positions
date/time (UTC)wind fromknots sea level pressurealtimeterstation pressurevisibilityair tempwater tempwave heightnotes
2017-Aug-23 06:01 286 0 gusting 3 21.7
2017-Aug-23 05:45 281 21.7
2017-Aug-23 05:31 281 22.2
2017-Aug-23 05:15 280 22.2
2017-Aug-23 05:01 280 22.2
2017-Aug-23 04:45 276 22.2
2017-Aug-23 04:30 276 22.2
2017-Aug-23 04:16 276 22.2
2017-Aug-23 04:01 276 22.2
2017-Aug-23 03:45 275 22.2
2017-Aug-23 03:30 275 0 gusting 3 22.2
2017-Aug-23 03:16 267 22.8
2017-Aug-23 03:01 267 22.8
2017-Aug-23 02:45 267 22.8
2017-Aug-23 02:30 267 22.8
2017-Aug-23 02:15 265 23.3
2017-Aug-23 02:01 265 23.3
2017-Aug-23 01:45 265 23.3
2017-Aug-23 01:30 265 23.3
2017-Aug-23 01:15 264 22.8
2017-Aug-23 01:01 264 23.3
2017-Aug-23 00:46 257 23.3
2017-Aug-23 00:31 257 23.3
2017-Aug-23 00:15 257 23.3
2017-Aug-23 00:01 250 23.9
2017-Aug-22 23:45 250 23.9
2017-Aug-22 23:30 250 23.9
2017-Aug-22 23:15 192 23.9
2017-Aug-22 23:01 190 23.9
2017-Aug-22 22:45 190 23.9
2017-Aug-22 22:30 190 23.9
2017-Aug-22 22:16 190 23.9
2017-Aug-22 22:01 190 24.4
2017-Aug-22 21:45 190 24.4
2017-Aug-22 21:31 190 24.4
2017-Aug-22 21:15 190 25.0
2017-Aug-22 21:01 190 25.0
2017-Aug-22 20:45 190 25.0
2017-Aug-22 20:30 190 25.0
2017-Aug-22 20:15 190 25.0
2017-Aug-22 20:01 190 25.0
2017-Aug-22 19:45 190 25.6
2017-Aug-22 19:30 190 25.6
2017-Aug-22 19:15 190 25.6
2017-Aug-22 19:01 190 25.6
2017-Aug-22 18:45 190 25.6
2017-Aug-22 18:30 190 26.1
2017-Aug-22 18:16 190 26.1
2017-Aug-22 18:01 190 0 gusting 4 26.1
2017-Aug-22 17:46 190 26.1
2017-Aug-22 17:31 190 1 gusting 5 26.1
2017-Aug-22 17:16 190 2 gusting 6 26.1
2017-Aug-22 16:45 190 3 gusting 6 26.7
2017-Aug-22 16:30 190 3 gusting 6 26.7
2017-Aug-22 16:15 192 2 gusting 6 26.7
2017-Aug-22 16:01 189 4 gusting 6 26.7
2017-Aug-22 15:46 192 4 gusting 6 26.7
2017-Aug-22 15:30 185 1 gusting 7 27.2
2017-Aug-22 15:15 172 0 gusting 6 27.2
2017-Aug-22 15:01 174 1 gusting 7 26.7
2017-Aug-22 14:45 173 2 gusting 6 27.2
2017-Aug-22 14:01 181 2 gusting 6 26.7
2017-Aug-22 13:45 168 27.2
2017-Aug-22 13:30 175 0 gusting 6 27.2
2017-Aug-22 13:15 170 0 gusting 7 27.2
2017-Aug-22 13:01 200 3 gusting 8 26.7
2017-Aug-22 12:45 177 3 gusting 7 27.2
2017-Aug-22 12:30 175 3 gusting 9 27.2
2017-Aug-22 12:16 185 5 gusting 7 27.2
2017-Aug-22 12:01 169 2 gusting 6 26.7
2017-Aug-22 11:45 165 2 gusting 6 27.2
2017-Aug-22 11:30 165 0 gusting 6 26.7
2017-Aug-22 11:16 188 26.7
2017-Aug-22 11:01 176 2 gusting 5 26.7
2017-Aug-22 10:45 178 1 gusting 6 26.7
2017-Aug-22 10:30 197 0 gusting 5 26.7
2017-Aug-22 10:15 204 2 gusting 5 26.1
2017-Aug-22 10:01 209 1 gusting 6 26.1
2017-Aug-22 09:45 220 2 gusting 4 26.1
2017-Aug-22 09:30 220 26.1
2017-Aug-22 09:15 217 26.1
2017-Aug-22 09:01 217 25.6
2017-Aug-22 08:45 217 0 gusting 3 25.6
2017-Aug-22 08:31 219 25.6
2017-Aug-22 08:15 318 25.6
2017-Aug-22 08:01 355 25.6
2017-Aug-22 07:45 360 25.0
2017-Aug-22 07:30 360 24.4
2017-Aug-22 07:15 360 23.9
2017-Aug-22 07:01 360 22.8
2017-Aug-22 06:46 360 22.2
2017-Aug-22 06:30 350 22.2
2017-Aug-22 06:15 360 22.2
2017-Aug-22 06:01 360 22.2
2017-Aug-22 05:45 360 22.2
2017-Aug-22 05:30 360 22.2
2017-Aug-22 05:15 360 22.2
2017-Aug-22 05:01 360 22.2
2017-Aug-22 04:45 355 22.2
2017-Aug-22 04:31 355 22.2
2017-Aug-22 04:15 355 22.2
2017-Aug-22 04:01 355 22.8
2017-Aug-22 03:45 355 22.8
2017-Aug-22 03:30 355 22.8
2017-Aug-22 03:15 355 22.8
2017-Aug-22 03:01 355 22.8
2017-Aug-22 02:45 355 22.8
2017-Aug-22 02:30 351 23.3
2017-Aug-22 02:16 351 23.3
2017-Aug-22 02:01 351 23.3
2017-Aug-22 01:45 351 23.3
2017-Aug-22 01:30 347 23.3
2017-Aug-22 01:15 348 23.9
2017-Aug-22 01:01 340 23.9
2017-Aug-22 00:45 334 23.9
2017-Aug-22 00:31 334 23.9
2017-Aug-22 00:15 334 23.9
2017-Aug-22 00:01 332 23.9
2017-Aug-21 23:45 333 23.9
2017-Aug-21 23:31 350 23.9
2017-Aug-21 23:15 030 24.4
2017-Aug-21 23:01 031 24.4
2017-Aug-21 22:46 071 24.4
2017-Aug-21 22:30 082 24.4
2017-Aug-21 22:15 098 25.0
2017-Aug-21 22:01 098 24.4
2017-Aug-21 21:46 109 24.4
2017-Aug-21 21:31 109 25.0
2017-Aug-21 21:16 121 25.0
2017-Aug-21 20:30 158 25.0
2017-Aug-21 20:15 130 25.0
2017-Aug-21 20:01 136 25.0
2017-Aug-21 19:45 163 25.0
2017-Aug-21 19:31 160 0 gusting 4 25.0
2017-Aug-21 19:16 163 25.0
2017-Aug-21 19:01 171 1 gusting 4 25.6
2017-Aug-21 18:46 163 25.6
2017-Aug-21 18:30 170 2 gusting 6 25.6
2017-Aug-21 18:15 163 1 gusting 5 25.6
2017-Aug-21 18:01 161 4 gusting 6 26.1
2017-Aug-21 17:45 118 1 gusting 5 26.1
2017-Aug-21 17:30 183 0 gusting 6 26.1
2017-Aug-21 17:15 165 1 gusting 5 26.1
2017-Aug-21 17:01 171 3 gusting 6 26.7
2017-Aug-21 16:45 170 0 gusting 6 26.7
2017-Aug-21 16:30 168 0 gusting 6 26.7
2017-Aug-21 16:15 161 0 gusting 6 27.2
2017-Aug-21 16:01 153 4 gusting 6 26.7
2017-Aug-21 15:45 151 2 gusting 6 27.2
2017-Aug-21 15:31 173 5 gusting 7 27.2
2017-Aug-21 15:16 178 1 gusting 6 27.2
2017-Aug-21 15:01 150 2 gusting 6 27.8
2017-Aug-21 14:46 182 1 gusting 6 27.2
2017-Aug-21 14:30 194 2 gusting 6 27.2
2017-Aug-21 14:15 198 3 gusting 6 27.2
2017-Aug-21 14:01 257 3 gusting 6 27.2
2017-Aug-21 13:45 170 1 gusting 8 27.2
2017-Aug-21 13:31 190 0 gusting 7 27.8
2017-Aug-21 13:15 180 1 gusting 9 27.2
2017-Aug-21 13:01 187 6 gusting 8 27.8
2017-Aug-21 12:45 211 4 gusting 6 26.7
2017-Aug-21 12:30 162 4 gusting 6 27.8
2017-Aug-21 12:15 191 2 gusting 6 27.2
2017-Aug-21 12:01 229 3 gusting 6 27.2
2017-Aug-21 11:45 198 3 gusting 7 27.2
2017-Aug-21 11:30 222 1 gusting 8 27.2
2017-Aug-21 11:15 197 2 gusting 7 27.2
2017-Aug-21 11:01 239 0 gusting 6 27.2
2017-Aug-21 10:45 194 5 gusting 7 27.2
2017-Aug-21 10:31 223 26.7
2017-Aug-21 10:15 215 0 gusting 5 27.2
2017-Aug-21 10:01 205 0 gusting 6 26.7
2017-Aug-21 09:45 198 2 gusting 5 26.1
2017-Aug-21 09:31 221 2 gusting 6 26.1
2017-Aug-21 09:15 226 1 gusting 5 26.1
2017-Aug-21 09:01 194 2 gusting 6 25.6
2017-Aug-21 08:45 202 3 gusting 6 25.6
2017-Aug-21 08:30 209 0 gusting 5 25.6
2017-Aug-21 08:15 223 25.6
2017-Aug-21 08:01 236 25.0
2017-Aug-21 07:45 235 0 gusting 2 25.0
2017-Aug-21 07:31 009 25.0
2017-Aug-21 07:16 009 24.4
2017-Aug-21 07:01 009 23.9
2017-Aug-21 06:45 028 23.9
2017-Aug-21 06:30 037 23.9
2017-Aug-21 06:16 037 23.9
2017-Aug-21 06:01 037 23.3